Pope Army Airfield, NC

5:18 PM EST on February 10, 2016 (GMT -0500)
Simmons Army Air Field

Weather History for KFBG - November, 2012

Change the Weather History Date:

Tuesday, November 20, 2012

  Actual Average Record
Temperature  
Mean Temperature 50 °F -  
Max Temperature 59 °F 61 °F 75 °F (1999)
Min Temperature 41 °F 40 °F 29 °F (2008)
Degree Days  
Heating Degree Days 14    
Moisture  
Dew Point 45 °F    
Average Humidity 79    
Maximum Humidity 97    
Minimum Humidity 59    
Precipitation  
Precipitation 0.00 in - - ()
Sea Level Pressure  
Sea Level Pressure 30.11 in    
Wind  
Wind Speed 5 mph (North)    
Max Wind Speed 8 mph    
Max Gust Speed -    
Visibility 10 miles    
Events      
Averages and records for this station are not official NWS values.
T = Trace of Precipitation, MM = Missing Value Source: NWS Daily Summary

Daily Weather History Graph

Daily Weather History Graph

Search for Another Location

Airport or City:

Trip Planner

Search our weather history database for the weather conditions in past years. The results will help you decide how hot, cold, wet, or windy it might be!

Date:

Astronomy

Nov. 20, 2012 Rise Set
Actual Time 6:55 AM EST 5:06 PM EST
Civil Twilight 6:28 AM EST 5:34 PM EST
Nautical Twilight 5:57 AM EST 6:05 PM EST
Astronomical Twilight 5:27 AM EST 6:35 PM EST
Moon 12:37 PM EST (11/20) No Moon Set
Length of Visible Light 11h 05m
Length of Day
10h 11m
Waxing Crescent, 51% of the Moon is Illuminated
Nov 20
Waxing Crescent
Nov 28
Full
Dec 6
Last Quarter
Dec 13
New
Dec 20
First Quarter

Hourly Weather History & Observations

Time (EST) Temp. Windchill Dew Point Humidity Pressure Visibility Wind Dir Wind Speed Gust Speed Precip Events Conditions
12:55 AM 50.4 °F - 45.3 °F 83% 30.15 in 10.0 mi NNW 6.9 mph - N/A   Overcast
1:55 AM 50.7 °F - 45.1 °F 81% 30.14 in 10.0 mi NE 8.1 mph - N/A   Overcast
2:55 AM 50.0 °F - 44.6 °F 82% 30.14 in 10.0 mi NE 5.8 mph - N/A   Overcast
2:57 AM 50.0 °F - 44.6 °F 82% 30.14 in 10.0 mi NNE 6.9 mph - N/A   Overcast
3:55 AM 49.5 °F - 44.4 °F 83% 30.13 in 10.0 mi North 6.9 mph - N/A   Overcast
4:55 AM 48.7 °F - 44.2 °F 84% 30.14 in 10.0 mi North 5.8 mph - N/A   Overcast
5:55 AM 47.3 °F - 43.5 °F 87% 30.14 in 10.0 mi North 4.6 mph - N/A   Overcast
6:55 AM 47.1 °F - 43.5 °F 87% 30.16 in 10.0 mi NNW 4.6 mph - N/A   Overcast
7:35 AM 48.2 °F - 44.6 °F 87% 30.15 in 10.0 mi North 3.5 mph - N/A   Overcast
7:55 AM 47.7 °F - 43.7 °F 86% 30.15 in 10.0 mi North 4.6 mph - N/A   Mostly Cloudy
8:55 AM 50.9 °F - 44.6 °F 79% 30.15 in 10.0 mi North 5.8 mph - N/A   Clear
9:55 AM 53.6 °F - 45.1 °F 73% 30.15 in 10.0 mi North 8.1 mph - N/A   Clear
10:55 AM 55.0 °F - 45.5 °F 70% 30.15 in 10.0 mi NE 5.8 mph - N/A   Clear
11:55 AM 58.5 °F - 46.0 °F 63% 30.12 in 10.0 mi NNE 4.6 mph - N/A   Clear
12:55 PM 59.2 °F - 45.9 °F 61% 30.09 in 10.0 mi North 5.8 mph - N/A   Clear
1:55 PM 59.2 °F - 45.5 °F 60% 30.07 in 10.0 mi North 6.9 mph - N/A   Overcast
2:55 PM 59.7 °F - 45.5 °F 59% 30.06 in 10.0 mi North 4.6 mph - N/A   Mostly Cloudy
3:55 PM 58.8 °F - 45.1 °F 60% 30.06 in 10.0 mi Calm Calm - N/A   Clear
4:55 PM 56.8 °F - 46.4 °F 68% 30.05 in 10.0 mi Calm Calm - N/A   Mostly Cloudy
5:55 PM 54.1 °F - 46.8 °F 76% 30.06 in 10.0 mi NNW 4.6 mph - N/A   Overcast
6:55 PM 49.5 °F - 46.6 °F 90% 30.08 in 10.0 mi NNW 3.5 mph - N/A   Mostly Cloudy
7:55 PM 48.9 °F - 45.0 °F 86% 30.09 in 10.0 mi Calm Calm - N/A   Partly Cloudy
8:55 PM 46.6 °F - 44.1 °F 91% 30.09 in 10.0 mi NNW 3.5 mph - N/A   Clear
9:55 PM 43.7 °F - 42.6 °F 96% 30.09 in 10.0 mi Calm Calm - N/A   Clear
10:55 PM 42.4 °F 40.7 °F 41.7 °F 97% 30.09 in 10.0 mi North 3.5 mph - N/A   Clear
11:55 PM 41.9 °F - 40.6 °F 95% 30.09 in 10.0 mi Calm Calm - N/A   Clear